SCP
1 0 0 0 0 0 0 0 0 0 0 0 0 0 0 0 0 0 0 0 0 0 0 0 0 1 0 1 1 1 0 0 1 1 1 1 1 1 1 1 1 1 1 1 1 1 1 1 1
0 0 0 0 0 0 0 0 0 0 0 0 0 0 0 0 0 0 0 0 0 0 0 0 0 1 1 0 1 1 0 0 1 1 1 1 1 1 1 1 1 1 1 1 2 2 1 1 1
0 0 0 0 0 0 0 0 0 0 0 0 0 0 0 0 0 0 0 0 0 0 0 0 0 1 1 0 0 0 0 0 1 1 1 1 1 1 1 1 1 1 1 1 2 2 2 1 1
0 0 0 0 0 0 0 0 0 0 0 0 0 0 0 0 0 0 0 0 0 0 0 0 0 1 1 0 0 0 0 0 1 1 1 1 1 1 1 1 1 1 1 1 2 2 2 1 1
0 0 0 0 0 0 0 0 0 0 0 0 0 0 0 0 0 0 0 0 0 0 0 0 1 1 1 0 0 0 0 0 0 1 1 1 0 0 0 1 1 1 1 1 1 2 2 1 1
0 0 0 0 0 0 0 0 0 0 0 0 0 0 0 0 0 0 0 0 0 0 0 0 1 1 1 1 0 0 0 0 0 0 0 0 0 0 0 0 0 1 1 1 1 2 1 1 1
0 0 0 0 0 0 0 0 0 0 0 0 0 0 0 0 0 0 0 0 0 0 0 0 0 0 1 1 1 0 0 0 0 0 0 0 0 0 0 0 0 0 1 1 1 1 1 1 1
0 0 0 0 0 0 0 0 0 0 0 0 0 0 0 0 0 1 0 0 0 0 0 0 0 0 0 0 0 0 0 0 0 0 0 0 0 0 0 0 0 0 0 1 1 1 1 1 1
0 0 0 0 0 0 0 0 0 0 0 0 0 0 0 0 1 1 1 1 0 0 0 0 0 0 0 0 0 0 0 0 0 0 0 0 0 0 0 0 0 0 0 1 1 1 1 1 1
0 0 0 0 0 0 0 0 0 0 0 0 0 0 0 1 1 1 1 1 0 0 0 0 1 0 0 0 0 0 0 0 0 0 1 1 1 1 1 1 0 0 1 1 1 1 1 1 1
0 0 0 0 0 0 0 0 0 0 0 0 0 0 1 1 1 1 1 1 1 0 0 1 1 1 0 0 0 0 0 0 0 1 1 1 1 1 1 1 1 1 1 1 0 0 0 0 0
0 0 0 0 0 0 0 0 0 0 0 0 0 0 1 1 1 1 1 1 1 1 1 1 1 1 0 0 0 0 1 1 1 1 1 1 1 1 1 1 1 1 1 1 0 0 0 0 1
0 0 0 0 0 0 0 0 0 0 0 0 0 1 1 1 1 1 1 1 1 1 1 1 1 1 0 0 0 0 1 1 1 1 1 1 1 2 1 1 1 1 1 1 1 1 1 1 1
0 0 0 0 0 0 0 0 0 0 0 0 0 0 1 1 1 1 1 1 1 1 1 1 1 1 1 0 0 0 0 0 0 1 1 1 1 1 1 1 1 1 1 1 1 1 1 1 1
0 0 0 0 0 0 0 0 0 0 0 0 0 0 0 1 1 1 2 2 2 2 2 2 2 1 1 1 0 0 0 0 0 0 0 1 1 1 1 1 1 1 1 1 1 1 1 1 1
0 0 0 0 0 0 0 0 0 0 0 0 0 0 0 0 1 1 2 2 2 2 2 2 2 2 1 1 1 0 0 0 0 0 0 0 0 0 0 1 1 1 1 1 1 1 1 1 1
0 0 0 0 0 0 0 0 0 0 0 0 0 0 0 0 0 1 1 2 3 3 2 2 2 2 2 1 1 1 0 0 0 0 0 0 0 0 0 0 1 1 1 1 1 1 1 1 0
0 0 0 0 0 0 0 0 0 0 0 0 0 0 0 0 0 0 1 1 2 3 3 2 2 2 2 1 1 1 0 0 0 0 0 0 0 0 0 0 0 0 1 1 1 1 1 0 0
0 0 0 0 0 0 0 0 0 0 0 0 0 0 0 0 0 0 0 1 2 3 3 3 3 3 2 2 1 1 1 0 0 0 0 0 0 0 0 0 0 0 0 1 1 1 0 0 0
0 0 0 0 0 0 0 0 0 0 0 0 0 0 0 0 0 0 0 1 1 2 3 4 4 3 3 2 2 1 1 0 0 0 0 0 0 0 0 0 0 0 0 1 1 1 0 0 0
0 0 0 0 0 0 0 0 0 0 0 0 0 0 0 0 0 0 0 0 1 1 2 3 4 4 3 3 2 1 1 0 0 0 0 0 0 0 0 0 0 0 0 0 0 0 0 0 0
0 0 0 0 0 0 0 0 0 0 0 0 0 0 0 0 0 0 0 0 0 1 2 3 3 4 4 3 2 2 1 1 0 0 0 0 0 0 0 0 0 0 0 0 0 0 0 0 0
0 0 0 0 0 0 0 0 0 0 0 0 0 0 0 0 0 0 0 0 0 0 1 2 3 4 4 4 3 2 1 1 1 1 0 0 0 0 0 0 0 0 0 0 0 0 0 0 0
0 0 0 0 0 0 0 0 0 0 0 0 0 0 0 0 0 0 0 0 0 0 1 2 2 3 4 4 3 2 1 1 1 1 1 0 0 0 0 0 0 0 0 0 0 0 0 0 0
0 0 0 0 0 0 0 0 0 0 0 0 0 0 0 0 0 0 0 0 0 0 1 2 2 3 3 4 3 2 1 1 1 1 1 1 0 0 0 0 0 0 0 0 0 0 0 0 0
0 0 0 0 0 0 0 0 0 0 0 0 0 0 0 0 0 0 0 0 0 0 1 2 3 2 2 3 4 3 2 1 1 1 1 1 1 0 1 1 1 1 0 1 1 1 0 0 0
0 0 0 0 0 0 0 0 0 0 0 0 0 0 0 0 0 0 0 0 0 1 1 2 3 2 2 2 4 3 2 1 1 1 1 1 1 1 1 1 1 1 1 1 1 1 1 1 1
0 0 0 0 0 0 0 0 0 0 0 0 0 0 0 0 0 0 0 0 0 1 2 2 2 2 1 2 3 3 2 1 1 1 1 1 1 0 1 1 1 1 1 1 1 1 1 1 1
0 0 0 0 0 0 0 0 0 0 0 0 0 0 0 0 0 0 0 0 0 1 2 2 2 1 1 1 2 3 3 2 1 1 1 1 1 0 0 1 1 1 1 1 1 1 1 1 1
0 0 0 0 0 0 0 0 0 0 0 0 0 0 0 0 0 0 0 0 1 1 2 2 2 1 1 1 2 3 3 2 1 1 1 1 1 0 0 1 1 1 1 1 1 1 0 0 0
Wind_Speed
2 3 3 4 7 6 3 2 1 2 3 2 4 6 5 4 2 2 2 1 2 2 1 3 5 6 7 8 8 9 9 9 9 9 9 9 8 8 8 8 8 8 8 8 8 7 7 7 7
1 2 4 6 6 4 2 2 2 2 3 3 4 5 5 4 2 2 0 0 2 3 2 3 5 6 6 7 8 8 9 9 10 10 10 9 8 8 8 8 8 8 8 8 7 8 8 7 7
2 4 5 5 5 3 2 0 2 3 3 2 3 4 3 2 1 1 1 2 3 3 3 3 6 6 6 7 8 8 9 9 9 10 10 10 9 8 8 8 8 8 7 8 7 7 7 7 7
3 5 6 6 5 1 2 2 2 3 3 4 3 4 3 2 1 1 2 4 4 3 3 2 6 6 7 7 8 8 9 9 9 9 9 9 9 9 9 8 8 7 8 8 7 7 7 7 7
5 5 6 4 3 2 2 1 2 4 3 4 4 4 3 4 3 4 5 5 5 4 3 2 6 6 7 7 7 8 9 9 9 9 9 9 9 9 9 9 8 7 7 7 7 6 7 7 7
5 5 5 3 2 2 2 2 4 5 3 3 4 4 2 3 3 3 4 4 4 4 3 3 5 6 6 7 7 7 8 9 8 8 9 9 8 8 9 9 9 9 7 7 6 6 7 7 7
5 5 4 3 2 2 1 2 3 3 3 2 2 4 1 2 1 3 4 4 4 4 3 3 3 3 4 6 6 7 7 8 8 8 8 8 8 8 8 8 8 9 8 7 7 7 7 7 7
5 6 4 2 2 1 0 2 2 3 2 2 3 4 2 2 2 4 5 5 4 4 3 3 3 3 3 3 5 6 7 7 7 7 8 8 7 7 7 7 8 9 9 8 7 7 7 8 8
4 6 3 2 3 1 1 2 2 2 4 3 2 2 2 5 6 6 4 4 3 2 2 2 2 2 3 2 4 4 5 6 6 5 7 6 4 4 4 6 8 8 9 9 9 9 9 9 8
5 4 2 2 4 3 1 2 2 4 4 3 3 4 5 7 6 5 4 2 1 0 1 1 1 2 2 2 3 3 3 3 4 3 4 3 3 4 5 7 8 8 8 8 8 9 8 6 4
4 4 2 1 3 3 2 2 2 5 2 2 4 4 6 6 5 4 3 2 2 1 1 1 1 1 1 1 2 2 2 2 3 4 3 3 3 3 4 3 4 5 6 4 5 5 3 3 3
4 2 2 1 2 2 2 2 3 2 2 2 4 6 6 6 5 5 4 2 1 1 1 1 1 1 1 1 1 2 2 2 2 3 3 3 2 3 3 3 3 3 3 3 2 2 3 3 3
3 2 3 3 4 3 4 3 3 1 1 3 5 6 5 5 4 3 3 2 2 2 1 1 1 1 1 2 1 2 1 1 2 2 3 3 2 2 2 2 3 3 3 3 2 2 3 3 3
3 4 3 3 3 2 4 2 3 1 2 4 4 4 4 4 5 3 2 2 2 2 2 1 2 2 2 2 1 1 1 1 2 2 2 2 2 2 2 2 2 3 3 3 3 3 3 2 3
4 4 4 3 2 1 4 4 1 1 2 3 2 2 2 2 3 3 4 3 3 2 2 2 2 2 2 2 2 2 2 2 2 2 2 2 2 2 2 2 2 2 2 3 3 4 3 3 4
4 4 2 3 2 1 4 1 3 0 3 2 1 1 1 1 2 2 3 3 3 2 2 2 3 3 2 2 2 1 2 2 2 2 2 3 3 2 2 2 2 2 2 3 3 3 3 3 3
4 2 0 3 2 1 3 2 3 0 2 2 2 2 1 1 1 1 2 2 2 3 3 3 3 3 3 2 2 2 2 2 2 2 2 2 3 3 2 2 2 2 2 3 3 3 2 2 3
2 1 0 2 2 2 1 3 3 1 2 2 2 2 1 2 3 2 1 1 2 2 3 3 3 2 3 2 2 2 2 2 2 2 2 2 2 2 2 2 2 2 2 2 3 3 3 2 2
4 3 1 3 1 1 2 3 4 2 2 2 3 3 3 3 3 1 1 1 2 2 3 3 3 2 2 2 1 1 0 1 1 1 2 2 2 2 2 2 2 2 2 2 2 2 3 2 2
4 3 1 2 1 1 2 4 4 3 4 4 5 4 3 2 1 1 1 2 1 2 3 3 3 3 2 2 2 1 1 0 0 1 2 2 2 1 2 2 2 2 2 2 2 2 2 2 2
1 4 4 2 2 2 1 4 4 3 2 2 2 3 3 3 3 1 1 1 1 1 2 2 3 2 2 2 2 2 2 2 2 2 1 2 2 1 1 1 2 2 2 1 1 1 2 1 1
3 4 4 3 1 2 0 4 6 3 3 3 3 2 2 2 2 1 1 1 1 1 1 2 2 2 2 3 3 4 2 1 1 1 1 1 1 1 1 1 1 1 1 1 0 1 1 2 1
3 1 3 2 2 1 1 2 7 1 3 5 5 4 3 3 2 2 2 1 1 1 2 2 2 2 2 2 3 3 2 1 0 1 1 1 1 1 1 1 1 1 0 0 0 1 1 1 1
3 5 5 5 4 1 3 3 7 4 6 4 4 4 4 3 2 2 1 1 1 1 1 2 2 2 2 2 3 3 3 2 2 1 0 1 1 1 1 1 0 0 0 0 0 0 1 1 1
4 5 3 4 3 5 2 3 8 6 5 5 5 5 4 3 3 2 1 1 1 1 1 1 2 1 1 2 2 2 3 3 2 1 1 0 1 1 1 1 0 0 0 0 1 1 0 0 1
2 6 6 3 4 5 2 5 7 4 3 2 3 3 3 3 3 3 2 2 1 1 1 1 2 1 1 2 1 1 2 2 1 1 1 1 2 2 2 1 1 1 0 0 1 0 0 0 1
3 2 4 5 1 2 5 6 7 1 2 1 1 2 3 3 3 3 2 2 2 1 1 1 2 2 1 2 2 1 1 1 1 1 1 1 1 1 1 1 1 1 1 1 1 1 1 0 1
3 6 4 4 2 4 5 5 5 4 4 2 3 4 3 3 3 3 2 2 2 2 2 1 2 2 1 1 2 1 1 2 2 1 1 1 2 1 1 1 2 1 1 1 1 1 1 1 1
2 3 3 3 3 4 4 7 5 6 5 6 6 5 4 4 4 4 3 2 2 1 1 1 1 1 0 1 1 2 2 2 1 1 2 2 2 1 1 2 2 2 2 2 2 1 1 1 1
3 4 6 4 3 3 3 9 4 4 4 5 5 4 3 3 3 3 2 2 1 2 1 1 1 1 2 2 2 2 2 2 2 2 3 2 2 2 2 2 2 2 3 2 2 2 2 2 2
Wind_Direction
12 63 73 57 55 54 54 8 45 62 55 41 62 79 92 78 79 117 287 151 133 128 93 94 91 83 76 71 71 68 68 68 68 68 69 71 75 78 80 81 85 87 85 84 86 87 82 82 85
82 81 55 58 76 76 34 357 54 69 135 131 73 70 71 58 52 102 338 196 138 125 97 89 95 85 78 74 73 70 68 66 65 67 68 71 73 73 74 78 81 81 82 83 83 83 80 80 83
85 59 74 67 79 117 121 51 107 75 89 87 73 57 71 65 66 166 249 155 124 102 84 88 93 85 81 77 76 73 70 66 64 66 66 66 68 71 70 75 76 78 80 82 81 80 75 78 81
76 47 56 69 75 80 144 160 143 106 58 48 88 65 52 26 128 162 114 114 108 91 75 87 93 86 81 76 75 73 70 67 65 65 66 65 66 69 68 72 76 79 82 80 78 78 77 80 82
60 71 63 62 55 25 41 95 101 89 66 49 79 87 39 3 55 96 105 105 105 90 65 67 87 83 82 79 76 72 69 65 63 62 62 62 62 65 66 65 67 74 82 79 76 76 79 82 82
58 66 80 81 50 20 24 51 84 84 85 73 84 95 49 9 67 101 106 99 91 89 66 49 75 78 78 76 74 71 67 64 62 60 58 58 60 61 61 61 59 59 68 75 74 72 78 79 77
93 86 99 108 88 44 63 68 85 99 85 81 110 100 54 360 52 102 97 84 72 67 59 37 32 51 66 69 70 69 65 61 60 58 57 55 57 59 58 57 55 54 59 68 66 67 78 76 73
111 97 84 83 106 62 15 81 93 101 99 92 102 122 187 224 117 94 82 71 66 57 47 32 23 31 31 36 57 63 60 55 53 51 52 51 49 48 50 50 51 53 54 63 67 66 70 71 70
82 79 114 167 156 165 120 97 66 72 86 69 75 125 158 130 113 97 82 61 55 57 35 32 31 31 32 31 43 45 45 43 43 41 45 44 32 30 35 40 48 52 53 54 59 62 64 65 62
76 106 180 187 164 149 114 102 113 85 67 52 58 62 91 112 117 117 121 127 125 92 29 36 36 41 45 39 38 26 28 31 33 33 34 36 34 32 36 33 40 43 47 48 52 56 57 56 46
91 139 159 118 142 132 115 82 68 117 107 192 168 143 124 118 124 139 153 161 191 191 139 84 61 53 60 44 48 31 24 27 28 30 32 36 37 31 31 26 23 26 31 31 35 38 40 49 50
94 81 119 118 108 100 115 113 82 102 190 187 157 142 137 138 153 169 177 172 161 134 148 102 108 83 62 58 54 51 40 34 30 24 32 42 43 35 29 29 21 24 21 22 33 44 45 52 53
85 77 64 88 82 91 94 93 104 38 72 92 108 116 140 154 172 185 171 155 137 137 147 154 125 108 85 68 43 51 44 43 36 38 35 47 56 46 39 27 24 19 18 20 47 60 59 56 53
106 93 71 61 75 66 95 58 78 300 81 99 118 142 166 172 179 166 162 169 171 176 175 157 124 118 98 91 77 46 40 42 48 49 42 49 56 58 53 35 27 20 15 23 50 63 70 63 58
94 77 39 28 55 63 92 29 305 247 97 109 141 166 175 191 178 179 191 188 190 192 178 165 149 118 107 102 88 72 50 54 54 43 41 46 53 61 62 51 29 16 22 31 48 53 61 63 57
59 60 34 330 25 35 108 245 278 102 118 134 190 188 196 226 211 212 202 190 185 173 167 171 152 131 120 108 94 76 65 65 58 51 48 41 41 52 62 53 25 19 43 45 52 55 55 50 49
38 81 198 310 349 80 116 226 277 94 140 187 229 223 220 262 294 256 217 194 182 176 170 161 152 147 145 120 92 79 71 64 59 59 50 40 43 49 65 54 25 37 51 52 56 57 71 65 51
202 175 192 273 310 89 150 240 274 247 182 211 226 232 232 240 257 250 202 187 165 153 154 153 151 144 134 112 88 70 57 44 48 58 45 47 44 48 63 54 35 50 59 51 49 61 56 68 56
154 146 211 266 278 116 217 249 269 253 223 230 230 225 224 243 267 304 102 106 126 124 138 148 140 142 136 136 144 136 134 25 33 37 34 41 43 46 64 56 47 53 67 67 70 73 59 48 40
129 132 231 299 339 151 247 274 269 231 222 220 219 220 216 224 312 352 52 74 110 158 163 155 158 161 159 169 167 148 137 118 75 13 22 26 39 40 61 64 63 62 64 55 59 75 74 46 39
167 177 197 216 359 34 34 313 282 264 242 240 236 222 210 193 201 210 103 110 94 98 152 155 169 165 155 131 106 86 70 48 36 9 1 359 12 25 45 65 76 69 79 87 79 100 110 108 21
240 224 179 162 110 286 104 286 278 257 277 251 239 221 214 210 192 173 158 149 154 180 123 119 139 139 141 137 132 131 131 157 214 241 284 348 13 8 24 52 87 94 95 100 107 102 122 133 133
215 108 112 109 127 355 320 229 284 294 256 250 234 222 219 209 188 179 179 187 188 123 117 111 119 124 130 132 145 140 135 144 108 56 45 2 351 359 13 36 70 76 91 129 74 95 116 135 158
116 69 58 53 68 306 239 193 275 241 228 240 228 221 214 203 189 183 171 100 64 60 90 95 101 121 128 127 128 136 140 127 108 69 38 336 331 343 354 36 50 47 86 130 170 142 136 140 142
77 84 32 359 3 258 253 208 251 251 235 220 214 214 211 195 173 168 144 114 89 77 104 107 106 102 126 134 144 154 152 146 155 181 195 246 315 319 303 338 272 255 231 184 125 93 51 153 152
153 137 156 206 235 278 298 239 256 265 271 243 199 188 184 192 183 178 187 177 176 182 157 134 130 116 135 148 163 154 154 159 176 188 193 218 240 249 247 253 251 251 223 154 136 115 261 171 185
131 158 162 141 196 273 280 285 299 325 352 15 144 160 193 198 191 187 182 183 185 188 194 176 154 146 163 174 163 151 155 163 196 207 193 220 262 270 245 227 233 252 229 180 150 165 226 256 242
136 143 101 119 171 267 287 276 260 265 259 242 216 207 214 205 199 197 193 198 205 199 189 167 167 181 195 194 182 163 193 206 205 193 227 244 261 277 270 246 233 236 235 210 175 202 224 192 268
90 100 107 116 158 177 269 271 234 227 222 218 224 219 216 217 210 203 204 202 205 202 177 178 178 179 217 231 203 181 205 215 203 213 235 240 254 254 245 247 240 236 237 229 205 213 204 200 256
179 175 150 162 226 190 218 269 275 239 236 223 228 224 220 218 208 199 193 189 202 212 209 205 199 213 233 229 212 202 210 208 209 234 243 239 250 250 240 242 247 242 239 232 216 220 217 209 224